GW5817 Weather Reports


time (UTC)temp
C
wind
direction
speed
KPH
gust
KPH
rain 1hr
cm
rain 24hr
cm
rain mn
cm
humidity
%
barometer
mb
20260505170416 22 308 3.2 6.4 0.00 0.00 0.00 57 1010.1
20260505165912 22 18 0.0 11.3 0.00 0.00 0.00 60 1009.9
20260505165408 22 282 0.0 6.4 0.00 0.00 0.00 58 1009.9
20260505164903 22 269 4.8 6.4 0.00 0.00 0.00 57 1009.7
20260505164400 21 4 11.3 12.9 0.00 0.00 0.00 61 1009.9
20260505163859 22 41 3.2 8.0 0.00 0.00 0.00 56 1010.0
20260505163357 22 7 4.8 9.7 0.00 0.00 0.00 56 1009.7
20260505162855 22 285 3.2 4.8 0.00 0.00 0.00 58 1009.5
20260505162351 22 348 3.2 9.7 0.00 0.00 0.00 61 1009.9
20260505161848 21 0 3.2 11.3 0.00 0.00 0.00 58 1009.7
20260505161345 22 340 3.2 6.4 0.00 0.00 0.00 59 1009.6
20260505160842 22 231 3.2 4.8 0.00 0.00 0.00 52 1009.7
20260505160341 21 213 3.2 4.8 0.00 0.00 0.00 56 1009.6
20260505153319 21 348 6.4 11.3 0.00 0.00 0.00 58 1009.7
20260505152816 22 303 1.6 4.8 0.00 0.00 0.00 60 1009.5
20260505152313 21 191 0.0 4.8 0.00 0.00 0.00 58 1009.6
20260505151808 22 337 3.2 6.4 0.00 0.00 0.00 56 1009.2
20260505151305 22 322 3.2 4.8 0.00 0.00 0.00 57 1009.3
20260505150802 21 246 0.0 4.8 0.00 0.00 0.00 58 1009.1
20260505150259 21 235 3.2 6.4 0.00 0.00 0.00 56 1009.2
20260505140229 17 153 6.4 9.7 0.00 0.00 0.00 65 1008.7
20260505130153 14 106 6.4 8.0 0.00 0.00 0.00 75 1007.8
20260505124642 14 109 4.8 6.4 0.00 0.00 0.00 75 1007.9
20260505124139 14 119 3.2 8.0 0.00 0.00 0.00 74 1007.7
20260505123635 14 114 1.6 4.8 0.00 0.00 0.00 73 1007.7
20260505123132 15 123 3.2 8.0 0.00 0.00 0.00 72 1007.8
20260505122628 15 119 6.4 8.0 0.00 0.00 0.00 72 1007.7
20260505122126 15 130 4.8 9.7 0.00 0.00 0.00 70 1007.6
20260505121622 15 152 6.4 8.0 0.00 0.00 0.00 69 1007.6
20260505121119 15 146 8.0 11.3 0.00 0.00 0.00 70 1007.4
20260505120615 15 151 3.2 11.3 0.00 0.00 0.00 70 1007.5
20260505120112 15 157 4.8 9.7 0.00 0.00 0.00 69 1007.3
20260505115612 15 163 1.6 8.0 0.00 0.00 0.00 70 1007.4
20260505115109 15 146 1.6 4.8 0.00 0.00 0.00 70 1007.5
20260505114606 15 155 6.4 8.0 0.00 0.00 0.00 72 1007.3
20260505114102 15 144 1.6 3.2 0.00 0.00 0.00 72 1007.0
20260505113559 15 58 0.0 3.2 0.00 0.00 0.00 71 1007.2
20260505113055 15 87 0.0 4.8 0.00 0.00 0.00 70 1007.0
20260505112552 15 136 3.2 6.4 0.00 0.00 0.00 68 1007.2
20260505112050 16 136 3.2 6.4 0.00 0.00 0.00 67 1007.2
20260505111544 16 170 4.8 12.9 0.00 0.00 0.00 65 1007.0
20260505111040 16 148 6.4 8.0 0.00 0.00 0.00 65 1007.1
20260505110537 16 148 4.8 9.7 0.00 0.00 0.00 64 1006.9
20260505102009 16 150 6.4 12.9 0.00 0.00 0.00 61 1006.4
20260505101508 16 142 3.2 12.9 0.00 0.00 0.00 63 1006.4
20260505101004 16 180 0.0 9.7 0.00 0.00 0.00 62 1006.3
20260505100501 16 158 8.0 8.0 0.00 0.00 0.00 61 1006.4
20260505095957 16 150 6.4 11.3 0.00 0.00 0.00 62 1006.4
20260505095454 16 147 6.4 8.0 0.00 0.00 0.00 63 1006.2
20260505094950 16 148 6.4 6.4 0.00 0.00 0.00 64 1006.4
20260505094447 16 136 3.2 4.8 0.00 0.00 0.00 66 1006.0
20260505093943 15 130 4.8 4.8 0.00 0.00 0.00 68 1006.3
20260505093440 15 127 1.6 3.2 0.00 0.00 0.00 66 1006.2
20260505092937 16 114 0.0 3.2 0.00 0.00 0.00 66 1006.2
20260505092434 16 124 0.0 3.2 0.00 0.00 0.00 65 1006.1
20260505091932 16 122 1.6 4.8 0.00 0.00 0.00 65 1006.2
20260505091429 16 92 1.6 3.2 0.00 0.00 0.00 65 1006.2
20260505090927 16 61 0.0 1.6 0.00 0.00 0.00 66 1006.3
20260505090425 16 111 3.2 3.2 0.00 0.00 0.00 65 1006.0
20260505085922 16 166 0.0 3.2 0.00 0.00 0.00 64 1006.1
20260505085420 17 172 1.6 6.4 0.00 0.00 0.00 62 1005.9
20260505084918 17 154 8.0 11.3 0.00 0.00 0.00 61 1005.9
20260505084416 17 157 8.0 9.7 0.00 0.00 0.00 61 1005.6
20260505083914 17 147 4.8 9.7 0.00 0.00 0.00 62 1005.9
20260505083411 16 151 6.4 11.3 0.00 0.00 0.00 63 1005.6
20260505082907 15 148 6.4 8.0 0.00 0.00 0.00 69 1005.7
20260505082403 15 101 3.2 6.4 0.00 0.00 0.00 71 1005.6
20260505081900 15 108 4.8 4.8 0.00 0.00 0.00 69 1005.6
20260505081356 15 100 0.0 4.8 0.00 0.00 0.00 69 1005.5
20260505080853 15 111 3.2 4.8 0.00 0.00 0.00 72 1005.6
20260505080349 14 134 1.6 6.4 0.00 0.00 0.00 74 1005.6
20260505075845 14 110 1.6 4.8 0.00 0.00 0.00 75 1005.6
20260505075342 15 145 4.8 8.0 0.00 0.00 0.00 73 1005.4
20260505074839 15 145 4.8 6.4 0.00 0.00 0.00 72 1005.5
20260505074336 15 140 4.8 6.4 0.00 0.00 0.00 72 1005.5
20260505073834 15 153 0.0 1.6 0.00 0.00 0.00 73 1005.7
20260505073332 15 321 1.6 4.8 0.00 0.00 0.00 72 1005.4
20260505072828 15 33 0.0 4.8 0.00 0.00 0.00 70 1005.2
20260505072324 15 246 0.0 3.2 0.00 0.00 0.00 67 1005.3
20260505071820 15 145 0.0 4.8 0.00 0.00 0.00 68 1005.0
20260505071317 16 316 3.2 3.2 0.00 0.00 0.00 68 1005.1
20260505070815 16 55 0.0 3.2 0.00 0.00 0.00 66 1005.2
20260505070311 16 98 0.0 3.2 0.00 0.00 0.00 64 1004.8
20260505065807 16 225 0.0 3.2 0.00 0.00 0.00 62 1004.9
20260505065304 16 269 0.0 3.2 0.00 0.00 0.00 62 1004.8
20260505064801 16 222 0.0 4.8 0.00 0.00 0.00 62 1004.9
20260505064258 17 226 0.0 4.8 0.00 0.00 0.00 62 1004.7
20260505063756 18 324 3.2 4.8 0.00 0.00 0.00 56 1004.6
20260505063252 18 146 8.0 16.1 0.00 0.00 0.00 53 1004.7
20260505062749 18 158 11.3 14.5 0.00 0.00 0.00 53 1004.5
20260505062246 18 152 11.3 14.5 0.00 0.00 0.00 53 1004.4
20260505061743 19 158 9.7 19.3 0.00 0.00 0.00 52 1004.5
20260505061241 18 149 11.3 17.7 0.00 0.00 0.00 53 1004.5
20260505060738 19 161 12.9 19.3 0.00 0.00 0.00 52 1004.3
20260505060235 18 149 12.9 20.9 0.00 0.00 0.00 54 1004.3
20260505055730 18 161 12.9 17.7 0.00 0.00 0.00 54 1004.3
20260505055227 18 154 6.4 14.5 0.00 0.00 0.00 55 1004.4
20260505054724 18 173 4.8 12.9 0.00 0.00 0.00 54 1004.4
20260505054222 19 159 12.9 14.5 0.00 0.00 0.00 52 1004.2
20260505053720 19 154 8.0 14.5 0.00 0.00 0.00 52 1004.3
20260505053216 18 157 9.7 14.5 0.00 0.00 0.00 54 1004.4
20260505052713 19 163 6.4 12.9 0.00 0.00 0.00 54 1004.3
20260505052210 19 160 9.7 14.5 0.00 0.00 0.00 52 1004.2
20260505051707 20 161 11.3 12.9 0.00 0.00 0.00 52 1004.4
20260505051205 20 157 11.3 14.5 0.00 0.00 0.00 50 1004.4
20260505050703 20 152 11.3 16.1 0.00 0.00 0.00 50 1004.2
20260505050201 20 155 11.3 14.5 0.00 0.00 0.00 50 1004.3
20260505041636 20 146 8.0 16.1 0.00 0.00 0.00 51 1004.2
20260505041134 20 156 9.7 16.1 0.00 0.00 0.00 51 1004.2
20260505040630 20 137 16.1 19.3 0.00 0.00 0.00 52 1004.3
20260505040128 20 144 8.0 12.9 0.00 0.00 0.00 53 1004.1
20260505035624 20 149 9.7 12.9 0.00 0.00 0.00 53 1004.1
20260505035120 20 146 8.0 12.9 0.00 0.00 0.00 53 1004.1
20260505034617 20 137 8.0 11.3 0.00 0.00 0.00 54 1003.9
20260505034114 20 145 8.0 12.9 0.00 0.00 0.00 53 1004.0
20260505033611 20 146 11.3 11.3 0.00 0.00 0.00 53 1003.8
20260505033109 21 148 8.0 11.3 0.00 0.00 0.00 51 1003.8
20260505032607 20 149 11.3 14.5 0.00 0.00 0.00 54 1003.8
20260505032103 21 140 6.4 9.7 0.00 0.00 0.00 51 1003.6
20260505031600 21 141 6.4 11.3 0.00 0.00 0.00 49 1003.8
20260505031056 22 149 6.4 11.3 0.00 0.00 0.00 47 1003.8
20260505030553 22 160 9.7 9.7 0.00 0.00 0.00 47 1003.6
20260505030049 22 149 8.0 9.7 0.00 0.00 0.00 47 1003.7
20260505025545 22 152 6.4 8.0 0.00 0.00 0.00 49 1003.8
20260505025045 22 169 4.8 8.0 0.00 0.00 0.00 49 1003.7
20260505024541 23 177 3.2 6.4 0.00 0.00 0.00 50 1003.5
20260505024038 23 197 0.0 3.2 0.00 0.00 0.00 49 1003.6
20260505023535 25 160 3.2 9.7 0.00 0.00 0.00 44 1003.6
20260505023033 25 150 6.4 12.9 0.00 0.00 0.00 42 1003.4
20260505022530 25 152 8.0 9.7 0.00 0.00 0.00 42 1003.5
20260505022027 25 159 6.4 8.0 0.00 0.00 0.00 40 1003.5
20260505021524 26 153 6.4 9.7 0.00 0.00 0.00 36 1003.4
20260505021021 26 150 6.4 9.7 0.00 0.00 0.00 35 1003.3
20260505020520 26 173 3.2 6.4 0.00 0.00 0.00 36 1003.5
20260505020018 26 168 6.4 8.0 0.00 0.00 0.00 35 1003.4
20260505015515 27 144 9.7 9.7 0.00 0.00 0.00 35 1003.6
20260505015012 27 131 6.4 9.7 0.00 0.00 0.00 34 1003.9
20260505014508 27 180 3.2 9.7 0.00 0.00 0.00 33 1003.7
20260505014006 28 155 4.8 8.0 0.00 0.00 0.00 34 1003.9
20260505013503 28 160 0.0 3.2 0.00 0.00 0.00 31 1003.7
20260505013000 27 204 0.0 4.8 0.00 0.00 0.00 33 1003.9
20260505012458 27 163 4.8 8.0 0.00 0.00 0.00 30 1003.9
20260505011955 28 164 0.0 8.0 0.00 0.00 0.00 33 1003.9
20260505011450 28 281 1.6 4.8 0.00 0.00 0.00 29 1004.1
20260505010947 28 255 0.0 8.0 0.00 0.00 0.00 34 1004.2
20260505010443 30 94 3.2 4.8 0.00 0.00 0.00 30 1004.2
20260505005939 30 230 0.0 1.6 0.00 0.00 0.00 33 1004.1
20260505005436 30 334 0.0 4.8 0.00 0.00 0.00 33 1004.2
20260505004934 30 242 1.6 4.8 0.00 0.00 0.00 29 1003.7
20260505004430 30 311 0.0 3.2 0.00 0.00 0.00 32 1004.3
20260505003927 30 269 0.0 4.8 0.00 0.00 0.00 30 1004.2
20260505003425 30 293 3.2 6.4 0.00 0.00 0.00 37 1004.1
20260505002920 30 353 1.6 6.4 0.00 0.00 0.00 30 1004.1
20260505002417 30 328 4.8 4.8 0.00 0.00 0.00 27 1004.3
20260505001916 31 324 1.6 3.2 0.00 0.00 0.00 30 1004.5
20260505001413 30 261 0.0 3.2 0.00 0.00 0.00 26 1004.5
20260505000910 30 359 1.6 4.8 0.00 0.00 0.00 36 1004.5
20260505000408 30 297 0.0 3.2 0.00 0.00 0.00 27 1004.6
20260504235904 29 339 3.2 6.4 0.00 0.00 0.00 30 1004.6
20260504235401 30 228 3.2 6.4 0.00 0.00 0.00 28 1004.6
20260504234857 30 230 0.0 4.8 0.00 0.00 0.00 29 1004.4
20260504234355 30 347 1.6 8.0 0.00 0.00 0.00 32 1004.4
20260504233851 30 258 1.6 3.2 0.00 0.00 0.00 30 1004.5
20260504233347 30 300 3.2 4.8 0.00 0.00 0.00 32 1004.7
20260504232844 30 286 0.0 3.2 0.00 0.00 0.00 35 1004.4
20260504232341 29 78 3.2 4.8 0.00 0.00 0.00 27 1004.5
20260504231838 28 169 0.0 6.4 0.00 0.00 0.00 29 1004.5
20260504231334 28 336 0.0 4.8 0.00 0.00 0.00 27 1004.7
20260504230831 29 21 6.4 8.0 0.00 0.00 0.00 33 1004.5
20260504230329 30 344 1.6 4.8 0.00 0.00 0.00 28 1004.7
20260504225827 30 258 3.2 6.4 0.00 0.00 0.00 28 1004.8
20260504225323 30 252 0.0 1.6 0.00 0.00 0.00 27 1004.7
20260504224821 30 333 1.6 4.8 0.00 0.00 0.00 24 1004.9
20260504224318 28 336 0.0 4.8 0.00 0.00 0.00 24 1005.0
20260504223814 28 327 4.8 6.4 0.00 0.00 0.00 27 1005.0
20260504223310 27 347 4.8 8.0 0.00 0.00 0.00 28 1005.0
20260504222807 28 343 4.8 8.0 0.00 0.00 0.00 29 1005.1
20260504222305 30 261 3.2 4.8 0.00 0.00 0.00 29 1005.2
20260504221801 29 301 3.2 4.8 0.00 0.00 0.00 33 1005.2
20260504221258 29 267 3.2 8.0 0.00 0.00 0.00 33 1005.2
20260504220755 28 297 3.2 4.8 0.00 0.00 0.00 25 1005.0
20260504220252 28 10 4.8 9.7 0.00 0.00 0.00 30 1005.3
20260504215749 28 358 3.2 6.4 0.00 0.00 0.00 36 1005.4
20260504215246 28 357 3.2 8.0 0.00 0.00 0.00 32 1005.5
20260504214741 28 329 3.2 11.3 0.00 0.00 0.00 35 1005.6
20260504214238 28 220 3.2 6.4 0.00 0.00 0.00 33 1005.6
20260504213735 29 283 3.2 6.4 0.00 0.00 0.00 34 1005.7
20260504213231 29 254 1.6 6.4 0.00 0.00 0.00 33 1005.9
20260504212728 28 333 3.2 6.4 0.00 0.00 0.00 33 1005.6
20260504212225 28 243 3.2 6.4 0.00 0.00 0.00 35 1005.9
20260504211723 27 335 3.2 8.0 0.00 0.00 0.00 36 1006.0
20260504211219 27 317 4.8 9.7 0.00 0.00 0.00 33 1006.2
20260504210716 27 337 0.0 8.0 0.00 0.00 0.00 33 1005.9
20260504210213 27 336 4.8 12.9 0.00 0.00 0.00 37 1005.9
20260504205710 27 309 6.4 9.7 0.00 0.00 0.00 36 1006.0
20260504205208 27 328 4.8 6.4 0.00 0.00 0.00 41 1006.0
20260504204706 26 350 4.8 9.7 0.00 0.00 0.00 35 1006.2
20260504204204 26 341 4.8 8.0 0.00 0.00 0.00 33 1006.4
20260504203703 27 239 3.2 9.7 0.00 0.00 0.00 40 1006.2
20260504203200 26 319 4.8 12.9 0.00 0.00 0.00 35 1006.4
20260504202700 26 314 6.4 11.3 0.00 0.00 0.00 36 1006.6
20260504202158 26 337 6.4 14.5 0.00 0.00 0.00 40 1006.5
20260504201654 26 305 6.4 12.9 0.00 0.00 0.00 40 1006.5
20260504201152 26 332 6.4 8.0 0.00 0.00 0.00 41 1006.4
20260504200649 26 320 6.4 12.9 0.00 0.00 0.00 40 1006.5
20260504200145 26 322 8.0 11.3 0.00 0.00 0.00 39 1006.6
20260504195641 26 281 3.2 8.0 0.00 0.00 0.00 46 1006.6
20260504195137 26 300 3.2 8.0 0.00 0.00 0.00 45 1006.5
20260504194634 26 340 1.6 6.4 0.00 0.00 0.00 40 1006.4
20260504194130 26 281 3.2 8.0 0.00 0.00 0.00 43 1006.6
20260504193627 26 8 9.7 11.3 0.00 0.00 0.00 42 1006.5
20260504193125 26 330 4.8 11.3 0.00 0.00 0.00 44 1006.4
20260504192623 26 358 4.8 9.7 0.00 0.00 0.00 40 1006.6
20260504192121 26 322 1.6 12.9 0.00 0.00 0.00 44 1006.6
20260504191619 26 234 3.2 6.4 0.00 0.00 0.00 39 1006.6
20260504191115 26 242 3.2 4.8 0.00 0.00 0.00 44 1007.0
20260504190611 25 55 0.0 6.4 0.00 0.00 0.00 45 1006.7
20260504190108 25 322 4.8 9.7 0.00 0.00 0.00 42 1006.9
20260504185604 26 258 3.2 8.0 0.00 0.00 0.00 43 1006.9
20260504185101 25 209 0.0 4.8 0.00 0.00 0.00 39 1007.0
20260504184556 25 342 6.4 11.3 0.00 0.00 0.00 40 1006.9
20260504184052 25 288 1.6 4.8 0.00 0.00 0.00 42 1007.0
20260504183549 25 186 3.2 6.4 0.00 0.00 0.00 43 1007.0
20260504183047 25 351 1.6 11.3 0.00 0.00 0.00 41 1007.0
20260504182544 25 350 4.8 6.4 0.00 0.00 0.00 44 1007.1
20260504182041 25 192 3.2 4.8 0.00 0.00 0.00 42 1007.1
20260504181538 25 302 1.6 4.8 0.00 0.00 0.00 47 1007.2
20260504181037 24 338 3.2 4.8 0.00 0.00 0.00 45 1007.1
20260504180535 24 337 4.8 8.0 0.00 0.00 0.00 44 1007.2
20260504180034 23 315 4.8 11.3 0.00 0.00 0.00 51 1007.2
20260504175530 23 345 3.2 8.0 0.00 0.00 0.00 46 1007.2
20260504175027 23 308 1.6 4.8 0.00 0.00 0.00 52 1007.4
20260504174525 23 331 4.8 6.4 0.00 0.00 0.00 46 1007.0
20260504174022 23 323 8.0 8.0 0.00 0.00 0.00 49 1007.1
20260504173519 23 262 0.0 8.0 0.00 0.00 0.00 52 1007.1
20260504173016 23 345 3.2 11.3 0.00 0.00 0.00 49 1007.2
20260504172512 22 356 8.0 11.3 0.00 0.00 0.00 50 1007.0
20260504172008 23 277 0.0 6.4 0.00 0.00 0.00 49 1007.2
20260504171506 22 349 3.2 8.0 0.00 0.00 0.00 50 1007.1
20260504171003 22 336 3.2 11.3 0.00 0.00 0.00 52 1007.0